Theta_e
333 330 329 325 322 319 318 321 317 308 308 310 312 315 313 315 322 318 315 313 311 310 309 309 308 308 307 305 306 307 307 308 308 308 310 312 314 315
334 328 325 320 320 318 316 318 317 313 309 311 311 313 314 313 321 316 314 312 311 310 309 308 308 307 306 305 304 305 305 305 306 306 307 308 310 311
330 328 324 319 317 316 315 315 314 314 311 309 311 310 309 312 318 314 315 311 310 309 309 309 308 307 306 304 303 303 303 303 303 304 304 305 307 309
326 323 320 318 316 315 313 314 314 313 311 308 307 306 308 310 312 312 311 310 309 309 309 309 308 307 305 304 303 302 301 301 301 302 302 303 304 306
325 321 317 316 315 313 313 313 312 311 313 309 304 305 307 308 309 310 311 311 310 309 309 308 307 306 305 303 303 302 301 300 300 299 300 300 301 302
323 321 317 316 315 312 313 312 310 310 309 306 304 304 306 306 308 307 307 308 309 311 310 308 306 305 304 302 301 301 300 299 299 299 299 298 298 298
320 319 317 318 317 314 312 311 310 307 306 304 303 303 304 305 305 305 305 305 307 307 309 309 308 305 303 300 300 300 300 299 298 298 298 297 297 297
316 315 316 316 313 311 312 310 310 306 304 304 301 305 304 305 303 304 303 303 301 303 306 306 304 301 303 298 300 299 298 298 298 298 298 297 296 296
316 314 315 314 313 313 309 308 307 306 307 305 304 305 303 303 304 302 302 301 301 301 306 298 301 300 302 300 300 299 298 297 297 297 297 297 296 295
316 315 315 313 313 312 310 307 306 306 305 303 307 306 307 304 306 304 302 299 297 299 301 296 300 299 301 301 299 300 298 297 296 296 296 296 295 295
315 315 314 312 303 302 308 303 301 301 301 300 300 298 297 297 300 300 296 296 294 296 298 299 297 297 298 298 299 298 297 296 295 295 296 296 295 296
312 312 307 309 299 300 306 302 300 300 302 301 301 300 301 300 300 304 296 294 294 293 299 296 295 297 295 298 297 297 296 295 295 294 295 295 294 297
309 309 307 298 297 297 300 303 301 302 300 301 299 299 300 300 299 298 299 298 296 295 299 297 295 295 295 293 295 296 295 294 295 295 295 294 294 295
308 307 303 296 295 295 298 295 296 299 300 298 297 296 297 296 297 299 299 298 298 297 297 298 294 295 294 293 293 295 296 295 294 293 295 295 295 295
308 304 297 294 294 295 295 295 297 301 299 298 297 297 299 300 299 297 297 297 296 296 296 297 296 295 294 292 291 293 292 294 294 293 294 294 294 295
302 298 298 297 297 298 298 300 302 301 300 299 299 299 300 300 296 296 295 295 294 293 295 296 296 296 292 292 293 292 292 291 293 293 293 294 295 296
302 299 298 298 297 298 300 302 302 302 301 300 299 299 300 300 296 295 295 294 292 292 292 294 296 296 294 294 292 292 292 292 292 292 293 293 294 295
303 300 298 298 297 298 299 300 302 301 301 301 301 300 300 300 297 295 296 294 292 292 294 295 295 293 293 294 294 292 292 292 292 294 293 292 292 294
303 301 300 298 298 299 300 301 301 302 302 302 301 300 301 301 298 296 296 294 293 294 295 296 295 293 289 287 293 292 293 293 293 292 292 291 291 293
302 302 303 302 299 301 301 301 302 300 302 302 301 300 301 300 299 298 298 296 295 294 294 295 294 293 292 291 291 294 289 294 293 293 291 293 293 290
302 302 304 304 301 302 302 303 302 301 301 300 300 299 300 300 300 299 299 292 292 294 293 293 295 288 295 295 292 292 293 292 294 293 292 291 290 291
302 302 302 302 303 302 302 303 301 299 299 299 299 299 299 300 298 296 296 294 296 294 294 294 294 294 294 292 290 290 291 292 292 293 294 292 291 287
300 300 300 301 301 302 301 300 300 300 299 299 299 299 299 297 298 297 295 295 295 293 294 292 292 293 291 291 290 290 290 290 290 290 290 291 293 293
Wind_Speed
9 10 7 5 5 4 4 6 7 5 4 5 4 5 4 4 7 8 8 11 9 10 11 13 15 18 22 26 26 25 25 25 25 25 24 24 24 24
8 11 8 4 6 5 5 4 3 5 5 2 3 4 5 4 9 9 9 10 9 9 10 12 14 17 20 25 26 26 26 25 25 25 24 24 24 24
9 11 11 7 7 6 5 4 4 3 5 2 2 2 3 6 8 8 9 6 5 8 8 11 12 15 18 22 25 25 25 25 25 24 24 24 23 24
12 12 10 7 9 8 7 7 6 4 5 8 3 3 3 4 7 9 7 5 4 6 5 9 11 13 16 18 21 23 24 26 26 25 24 24 25 25
14 13 12 12 10 7 7 7 6 4 4 7 5 2 2 5 5 4 6 4 3 5 1 7 10 12 16 18 20 21 22 23 24 26 25 25 24 25
13 14 14 15 14 12 9 8 7 7 6 8 5 4 2 4 4 7 5 2 3 2 2 3 8 10 15 17 20 24 22 23 23 24 24 24 24 25
11 11 12 14 17 15 11 9 10 7 8 8 5 3 3 6 7 4 3 3 2 1 2 2 4 4 7 12 15 22 23 23 24 24 25 24 23 24
14 10 10 14 14 15 13 18 16 13 9 7 4 7 5 6 4 5 4 4 3 1 2 3 4 6 4 7 14 17 21 23 24 26 26 25 24 23
12 12 11 8 13 12 13 14 10 9 16 9 10 8 7 9 8 6 4 3 2 2 3 4 3 7 3 6 12 15 20 21 24 25 26 27 24 22
14 15 14 14 13 14 14 11 9 7 6 4 7 8 5 9 7 5 6 6 4 3 1 4 2 5 1 4 11 14 16 19 21 23 25 27 24 21
11 13 14 15 16 19 15 13 10 6 8 10 11 10 14 12 10 9 7 6 3 2 2 2 3 4 3 5 6 13 12 16 19 22 24 26 25 21
9 10 17 17 20 19 16 15 12 9 11 11 9 11 11 11 6 4 7 6 4 3 3 3 3 3 3 3 4 6 7 14 15 19 21 24 26 13
11 10 9 23 21 19 19 14 14 13 12 11 10 8 8 7 5 6 5 5 4 2 3 2 3 3 2 4 2 3 5 7 8 11 17 20 21 19
13 10 11 21 19 18 14 21 20 16 10 9 9 8 8 8 7 7 8 9 8 7 3 3 3 2 3 3 1 3 3 6 6 7 10 13 17 19
10 13 23 21 20 13 24 24 19 11 11 10 9 9 8 9 10 9 9 11 11 9 6 4 6 5 4 4 3 2 3 5 7 7 9 11 12 11
21 16 18 16 12 13 17 15 11 11 12 11 10 8 9 8 8 7 8 7 8 7 9 7 6 6 5 5 4 3 5 5 6 6 7 8 9 10
18 12 12 11 10 10 11 10 9 9 10 9 10 10 10 9 8 6 8 5 8 6 6 5 7 8 5 3 5 4 5 5 5 5 6 8 9 10
14 14 13 12 12 12 13 11 10 11 9 10 10 10 10 9 9 7 7 8 9 6 5 2 4 5 2 5 7 4 4 4 4 6 6 6 8 9
13 14 13 13 13 12 12 12 11 9 10 9 10 10 10 9 9 8 8 8 7 6 4 2 2 2 5 6 2 7 3 3 3 6 6 6 7 8
11 13 13 12 12 12 12 11 10 9 9 9 9 9 9 10 10 9 9 9 8 5 4 3 3 4 4 4 3 3 6 3 3 2 4 6 4 4
12 11 12 12 12 11 11 10 10 10 10 9 9 9 9 10 9 9 9 8 8 6 6 5 3 2 4 4 4 3 4 9 5 4 3 2 3 6
11 11 10 10 11 11 10 11 10 9 10 9 9 9 8 8 9 9 9 10 9 7 5 4 4 4 2 3 6 6 5 5 8 11 13 8 3 4
10 9 9 9 9 10 10 9 9 9 10 10 9 8 9 8 8 8 8 8 9 7 8 6 4 1 3 4 7 6 8 5 4 6 7 11 10 9
Wind_Direction
212 197 202 184 165 179 155 158 145 164 177 186 158 191 191 173 176 148 141 124 102 76 57 43 28 22 16 15 10 10 8 7 6 4 5 5 6 7
192 200 196 160 176 183 168 154 143 139 150 139 193 153 185 165 164 151 148 129 115 90 68 49 35 26 18 14 11 11 10 7 7 6 5 6 7 6
187 190 196 156 180 170 150 141 138 132 126 123 97 139 126 154 148 156 145 138 131 101 73 52 39 29 20 12 11 14 12 9 10 7 7 7 6 6
190 181 185 159 175 166 159 163 149 145 131 145 132 136 113 143 152 156 147 155 146 118 74 61 47 34 25 12 8 15 14 11 13 10 9 7 6 8
182 182 174 162 162 161 153 155 146 148 136 144 136 127 111 134 141 145 145 162 190 155 74 63 53 35 27 15 9 13 16 12 11 12 11 12 10 8
177 181 167 170 168 161 152 151 139 133 122 131 118 121 133 118 149 160 153 179 199 216 280 360 61 37 31 18 13 17 16 15 12 13 10 12 12 13
167 171 172 166 162 162 149 153 140 132 142 136 131 138 152 148 181 160 133 147 173 272 264 350 14 45 31 21 21 17 14 16 14 13 12 12 12 13
166 160 147 146 153 149 151 152 152 150 150 142 146 163 163 152 153 156 124 149 185 94 154 80 44 60 49 29 17 13 14 12 13 14 13 13 13 11
159 153 154 154 151 148 137 127 130 156 160 146 160 178 154 170 153 147 137 134 150 118 141 90 59 71 54 32 15 14 13 10 11 12 14 11 12 11
163 160 156 151 153 147 139 127 123 121 133 141 167 163 138 151 155 144 134 114 99 98 121 128 86 86 71 22 0 6 7 5 10 12 14 12 10 13
155 153 153 151 149 143 135 131 125 104 77 96 104 112 117 127 139 121 129 140 119 112 92 146 151 123 62 41 16 9 2 2 9 11 15 15 9 14
151 144 149 149 147 145 140 143 136 144 135 122 104 96 116 120 81 113 145 138 122 142 129 156 152 188 123 42 13 15 4 11 9 12 14 14 12 19
152 150 155 144 147 142 142 149 146 140 129 119 116 118 127 122 100 100 103 128 130 101 114 149 154 143 81 127 29 355 5 9 16 17 14 14 14 21
159 155 144 144 137 132 131 124 127 130 128 125 125 127 135 126 115 106 96 86 68 81 84 200 116 152 127 126 112 338 19 25 20 23 18 16 24 19
148 143 140 135 125 110 129 131 134 136 136 135 131 130 129 122 118 105 93 89 77 58 48 62 108 113 92 105 112 343 325 25 22 26 28 26 22 20
118 128 138 131 116 127 133 140 142 146 146 141 133 129 127 129 123 129 115 111 92 71 52 57 90 105 100 81 91 64 21 37 358 23 37 38 29 33
122 128 134 136 132 142 154 144 143 145 144 134 142 147 140 136 134 136 127 116 115 120 108 81 72 79 72 102 84 50 42 49 18 15 38 46 42 31
136 147 149 148 151 156 158 153 157 158 150 148 151 151 147 150 147 150 134 135 136 138 133 132 135 125 115 76 41 71 52 30 20 32 42 49 49 37
146 153 155 155 157 160 160 162 164 165 154 159 156 157 156 153 151 159 150 148 148 143 142 150 150 149 128 110 96 43 38 28 25 45 38 45 46 39
147 153 156 157 159 156 160 165 156 155 161 164 158 155 161 160 161 166 167 160 166 149 154 167 190 175 149 134 109 64 31 17 29 25 40 54 57 360
150 157 160 159 159 160 161 161 163 163 163 156 150 153 159 161 165 170 167 162 156 155 166 179 186 134 111 124 117 84 50 31 54 25 7 27 52 39
147 152 153 156 161 157 159 159 153 158 160 150 154 154 156 156 156 157 155 160 171 162 150 135 148 158 120 129 120 118 102 70 62 56 46 31 14 56
135 142 152 146 149 151 152 150 160 165 159 153 158 155 153 151 153 151 151 161 159 144 150 142 146 125 100 119 133 131 121 110 83 80 69 27 43 70